Wind_Speed
9 8 9 11 12 12 13 13 13 14 14 14 15 17 18 16 13 10 7 3 4 7 11 13 13 13 13 12 11 10 8 7 6 5 5 5 5 6 6 7 7 8 8 9
9 8 10 11 12 13 14 14 13 13 13 13 13 15 16 14 11 8 5 0 6 9 12 14 13 12 11 11 10 9 8 7 6 5 5 5 5 5 6 6 7 7 8 9
10 9 10 11 12 13 13 14 14 13 12 12 12 13 14 12 11 8 4 0 5 8 11 12 11 11 11 10 9 9 8 7 6 5 5 4 4 5 5 5 6 7 8 8
10 10 10 11 13 14 14 13 14 13 13 13 13 12 11 10 9 8 4 2 5 7 9 10 10 10 10 10 9 9 8 7 6 6 5 4 4 4 4 5 5 6 7 8
10 10 10 11 12 14 14 14 14 13 12 13 11 10 9 8 7 6 5 2 4 6 8 9 9 10 10 10 9 8 8 7 6 7 6 4 4 4 4 4 5 6 7 8
11 11 11 11 12 13 14 14 13 12 11 10 9 8 8 7 5 5 3 2 3 4 6 8 9 9 9 9 9 8 7 7 7 6 6 5 5 4 4 4 5 6 7 8
11 11 12 12 13 13 14 14 14 12 10 10 9 8 7 6 5 3 2 1 1 3 5 7 8 9 9 9 9 8 8 8 7 6 6 6 5 5 5 5 6 6 7 8
11 9 12 13 14 14 13 14 14 13 12 10 9 9 7 5 5 4 3 3 3 3 5 6 8 9 9 9 9 9 8 8 7 7 7 7 6 6 6 6 7 7 8 9
14 11 13 14 15 15 14 14 15 15 13 10 9 8 7 6 6 6 5 5 5 5 6 7 8 9 10 9 9 10 9 9 9 8 8 7 7 7 7 7 8 9 10 11
16 15 13 15 15 15 14 15 16 15 14 11 9 8 8 8 8 8 8 7 7 7 7 8 8 9 10 10 10 10 11 11 10 10 9 9 8 8 9 9 10 11 12 14
17 17 15 15 14 15 15 15 15 16 15 13 12 9 8 9 9 9 9 9 9 8 8 9 9 10 11 11 12 12 12 12 12 11 11 11 11 11 11 12 12 13 14 16
16 16 14 13 14 15 16 16 16 17 16 15 14 10 9 10 9 9 10 10 11 10 10 11 11 11 12 13 13 13 13 13 13 13 13 13 13 13 14 14 15 16 17 18
16 13 12 12 13 15 16 17 17 18 18 16 15 12 11 11 11 10 11 12 12 13 13 13 13 13 14 15 15 15 16 16 15 15 15 16 16 16 16 17 18 19 19 20
15 14 13 14 15 16 16 17 18 18 18 17 15 14 13 14 13 12 12 13 13 13 14 14 14 15 15 16 17 17 17 17 17 17 17 18 19 19 19 20 21 22 22 23
16 16 16 15 17 17 16 17 19 19 18 18 16 16 15 15 15 15 15 15 14 14 15 15 15 15 16 17 17 18 18 18 18 19 19 20 20 20 21 22 23 24 25 26
18 18 18 17 18 19 18 18 20 20 20 18 17 16 17 18 16 16 16 16 16 16 16 17 17 17 17 17 18 18 18 19 20 20 21 21 22 22 23 24 25 27 28 29
19 19 19 18 20 22 21 20 21 22 21 20 19 17 17 18 18 18 18 18 18 17 17 17 18 18 18 19 19 19 19 20 21 21 22 23 24 24 25 26 28 29 30 31
20 20 20 19 20 22 20 20 21 21 21 21 20 19 20 21 21 21 21 21 21 20 19 20 20 21 21 20 20 20 20 21 22 23 24 25 26 27 28 29 30 31 33 33
20 20 20 20 20 19 19 20 21 21 21 21 20 20 21 21 21 21 21 22 22 22 22 22 22 22 21 22 22 22 22 23 24 25 26 27 28 29 30 31 33 34 35 36
20 20 19 19 20 20 19 20 21 22 21 21 22 22 22 23 23 23 23 23 23 24 23 24 24 24 24 24 24 24 24 25 26 27 28 29 30 31 32 34 35 37 38 38
19 19 19 19 20 20 20 21 21 22 22 22 23 22 22 23 23 24 24 24 25 26 25 26 27 27 26 26 26 26 26 27 29 29 30 31 32 34 35 37 38 39 40 41
19 20 20 21 21 20 21 21 21 21 21 21 21 22 22 23 23 23 23 24 25 26 26 26 27 27 27 28 28 28 29 29 30 31 32 34 35 37 38 39 41 42 42 43
21 21 22 22 22 22 22 22 22 22 21 21 21 21 22 22 23 23 23 24 25 26 26 26 27 26 27 29 29 30 31 32 33 34 34 36 38 39 40 41 43 44 45 45
23 23 24 24 23 23 23 23 23 22 22 22 22 21 20 21 22 23 24 24 23 24 26 26 26 27 29 30 30 32 33 35 35 36 37 39 40 41 43 44 45 46 47 48
24 24 24 24 24 24 22 23 23 23 22 23 22 21 19 19 21 22 23 22 23 24 25 27 27 28 29 30 32 33 34 36 38 39 40 41 43 44 45 47 48 49 50 51
24 25 25 24 24 24 23 22 23 23 23 23 22 21 21 21 22 22 23 24 24 25 25 26 27 29 31 32 34 35 37 38 40 41 42 44 45 46 48 49 50 51 52 53
Wind_Direction
286 286 292 301 308 314 324 325 328 333 336 341 345 343 339 337 339 336 331 306 217 208 192 186 187 185 191 194 194 191 188 196 209 221 239 262 280 294 304 311 314 317 319 319
276 273 289 295 304 311 321 327 330 332 336 339 343 344 342 343 347 346 342 301 180 187 181 182 184 186 185 187 188 185 185 194 207 219 240 255 278 294 304 312 318 323 325 324
267 274 285 294 301 307 317 324 327 330 334 336 337 340 341 348 353 358 5 58 170 172 174 176 180 181 179 183 186 187 190 198 209 220 236 249 268 287 302 314 320 323 326 327
257 267 281 295 306 309 313 316 324 327 330 334 334 337 341 351 357 2 15 82 156 162 168 172 173 178 182 185 189 193 197 204 213 225 234 243 260 278 296 308 316 322 327 331
252 262 277 291 305 311 314 316 322 325 324 324 327 336 339 351 358 8 27 80 141 162 168 170 175 180 183 186 192 198 200 205 215 223 229 239 251 266 282 299 314 323 327 329
251 264 277 288 301 308 310 315 318 319 321 326 323 327 332 339 346 357 22 77 133 154 164 170 177 183 189 191 195 200 205 213 219 223 228 236 245 260 280 299 311 318 324 328
247 266 278 286 299 305 310 313 314 316 318 324 319 315 314 323 324 326 334 349 151 176 178 179 184 190 197 199 201 206 211 216 219 221 225 234 248 263 281 296 303 309 317 324
252 269 285 285 293 303 307 309 311 314 317 317 311 309 306 307 312 306 294 271 255 225 210 201 201 202 204 206 208 209 215 221 224 226 232 241 252 265 279 290 298 304 312 319
258 266 282 284 286 293 301 303 306 308 313 313 308 300 296 294 297 295 286 272 254 240 226 218 216 215 216 217 219 220 223 227 228 232 237 244 256 270 281 290 295 301 306 313
265 270 278 284 279 284 295 299 303 304 307 307 307 299 288 288 287 287 283 275 259 249 237 229 224 224 224 224 228 227 229 231 234 239 244 251 260 271 280 288 293 297 303 308
268 271 277 278 279 284 287 291 296 297 299 297 297 302 282 280 279 280 280 276 268 260 251 243 237 234 232 230 231 233 234 236 240 244 250 255 263 272 280 287 292 296 300 303
273 274 274 277 278 281 281 285 291 293 292 289 287 290 279 275 273 273 273 271 266 262 259 252 247 242 239 237 236 238 241 243 248 251 255 261 266 272 278 284 289 293 297 301
271 268 275 275 276 280 281 283 287 289 289 287 282 282 276 269 268 270 270 268 264 261 261 256 248 243 241 241 241 242 245 248 250 255 260 265 269 272 277 283 288 291 295 299
266 268 274 276 278 281 283 281 283 287 286 284 279 275 272 269 270 271 270 268 265 264 262 257 250 246 244 244 246 246 249 252 256 260 263 267 271 274 279 283 288 291 295 298
266 267 270 271 275 279 281 282 283 286 286 284 278 273 271 270 272 270 270 268 265 266 266 258 254 255 252 251 250 250 252 255 259 263 266 269 273 277 280 284 288 291 294 296
268 270 271 272 275 276 279 284 284 286 288 286 282 278 273 268 270 272 271 267 266 267 266 261 258 257 256 256 255 256 258 260 263 266 269 272 276 279 282 285 289 291 294 296
266 269 271 273 274 277 281 284 283 284 285 285 282 278 273 267 264 267 268 267 265 264 263 260 257 256 257 258 259 260 262 265 267 270 273 276 279 282 285 287 290 292 293 295
267 268 270 272 276 278 284 280 280 282 281 282 279 275 273 268 266 266 265 265 263 264 263 261 259 257 256 259 261 263 266 269 272 274 277 279 282 284 287 288 290 291 293 294
263 266 270 273 277 280 281 282 281 283 282 279 276 274 272 270 269 266 266 265 262 264 264 262 260 259 260 261 263 265 268 271 274 276 278 281 283 285 287 288 290 291 292 294
263 267 272 274 277 281 282 282 282 283 282 276 274 274 271 271 270 269 267 263 261 262 263 261 260 260 261 262 265 268 270 273 275 277 279 281 283 285 286 288 289 291 292 293
264 269 272 276 278 281 282 282 281 281 282 277 273 272 272 270 269 268 265 262 260 258 261 261 258 259 261 264 267 269 271 273 275 278 281 283 284 285 286 287 289 290 291 292
266 271 273 274 277 279 280 281 282 283 283 279 275 273 273 268 267 266 266 262 259 259 259 260 258 259 262 266 269 271 273 276 278 280 281 282 283 285 286 287 289 290 291 292
264 268 271 273 275 278 279 280 282 283 284 280 275 274 272 268 266 266 267 267 263 260 258 259 262 264 266 270 272 273 275 277 278 280 282 283 284 286 287 288 289 290 291 291
264 267 270 273 275 277 277 277 278 281 282 279 277 274 271 267 267 267 267 266 263 262 261 263 265 268 271 273 274 274 275 278 279 280 282 284 285 285 286 287 288 289 290 291
266 268 271 273 276 278 278 278 277 278 279 280 276 273 272 271 270 269 268 267 266 266 265 266 267 269 272 275 277 278 279 281 282 284 285 286 286 287 288 289 289 290 290 291
265 267 270 272 274 275 276 277 278 277 278 275 272 272 271 269 269 268 267 268 269 268 268 270 272 274 276 278 280 281 283 283 284 285 286 286 287 287 288 288 289 289 290 290
Height
5877 5877 5876 5875 5874 5872 5871 5869 5866 5863 5860 5858 5854 5850 5847 5843 5840 5838 5836 5835 5834 5835 5837 5840 5842 5846 5849 5852 5855 5858 5860 5862 5864 5865 5866 5866 5866 5866 5866 5866 5865 5865 5864 5863
5876 5875 5875 5874 5872 5871 5869 5867 5864 5862 5859 5857 5854 5850 5846 5843 5840 5838 5836 5835 5834 5835 5837 5840 5843 5846 5849 5851 5854 5857 5859 5861 5862 5863 5864 5865 5865 5865 5865 5864 5864 5863 5862 5862
5874 5874 5873 5872 5870 5869 5867 5865 5863 5861 5858 5856 5853 5851 5847 5844 5840 5838 5836 5835 5835 5837 5839 5841 5843 5846 5848 5851 5853 5856 5858 5859 5861 5862 5863 5863 5863 5864 5864 5863 5863 5862 5861 5861
5871 5871 5871 5870 5868 5867 5865 5863 5861 5859 5857 5855 5853 5850 5848 5845 5842 5840 5838 5837 5837 5838 5840 5841 5843 5846 5848 5851 5853 5855 5856 5858 5859 5860 5861 5862 5862 5862 5862 5862 5861 5861 5860 5859
5869 5869 5868 5867 5866 5864 5863 5861 5860 5858 5856 5855 5852 5850 5849 5846 5844 5842 5840 5839 5839 5840 5841 5842 5844 5846 5848 5850 5852 5854 5855 5856 5857 5859 5860 5860 5861 5861 5861 5861 5860 5859 5859 5858
5867 5866 5866 5865 5863 5862 5861 5859 5858 5856 5855 5854 5851 5850 5849 5847 5846 5844 5843 5842 5842 5842 5843 5843 5844 5847 5848 5849 5851 5852 5854 5855 5856 5857 5858 5859 5859 5859 5859 5859 5858 5858 5857 5856
5864 5864 5863 5862 5861 5860 5859 5858 5856 5855 5853 5852 5851 5849 5849 5847 5846 5845 5844 5843 5843 5843 5844 5844 5845 5846 5847 5849 5850 5851 5853 5854 5855 5855 5856 5857 5857 5857 5857 5857 5856 5856 5855 5854
5861 5861 5860 5859 5859 5858 5856 5855 5855 5853 5852 5851 5849 5848 5848 5846 5846 5845 5845 5844 5843 5843 5843 5844 5844 5845 5846 5848 5849 5850 5851 5852 5853 5854 5854 5855 5855 5855 5855 5855 5854 5853 5853 5851
5857 5858 5857 5856 5856 5855 5854 5853 5852 5851 5850 5849 5848 5848 5847 5846 5845 5845 5845 5844 5844 5843 5843 5843 5844 5844 5845 5846 5846 5847 5849 5850 5851 5851 5852 5852 5852 5853 5852 5852 5851 5850 5849 5848
5853 5854 5854 5853 5852 5852 5851 5850 5849 5848 5847 5846 5846 5846 5846 5845 5844 5844 5843 5843 5843 5843 5842 5842 5842 5843 5843 5844 5845 5846 5847 5847 5848 5849 5849 5849 5849 5849 5849 5848 5848 5847 5846 5845
5848 5849 5850 5849 5849 5848 5848 5847 5846 5845 5844 5844 5843 5846 5844 5843 5842 5842 5841 5841 5840 5840 5840 5840 5840 5840 5841 5842 5842 5843 5844 5845 5845 5845 5846 5846 5846 5846 5845 5845 5844 5843 5842 5840
5843 5844 5844 5844 5844 5843 5843 5843 5843 5842 5841 5841 5841 5844 5841 5841 5840 5839 5839 5839 5838 5838 5838 5837 5837 5838 5838 5839 5839 5840 5841 5841 5842 5842 5842 5842 5842 5842 5841 5840 5839 5838 5837 5835
5839 5839 5840 5840 5842 5840 5839 5838 5838 5838 5837 5837 5837 5841 5838 5838 5837 5837 5837 5836 5836 5835 5835 5835 5835 5835 5835 5836 5836 5836 5837 5837 5837 5838 5838 5838 5837 5837 5836 5835 5834 5833 5831 5830
5834 5835 5836 5837 5835 5835 5835 5834 5834 5833 5833 5833 5834 5835 5835 5835 5834 5834 5834 5834 5833 5833 5832 5832 5832 5832 5832 5832 5832 5833 5833 5833 5833 5833 5833 5833 5832 5831 5830 5829 5828 5827 5825 5824
5829 5830 5830 5831 5830 5830 5830 5830 5829 5829 5829 5829 5829 5830 5831 5831 5831 5831 5831 5830 5830 5830 5829 5829 5828 5828 5828 5828 5828 5828 5828 5828 5828 5828 5828 5827 5827 5826 5825 5823 5822 5821 5819 5818
5824 5825 5825 5826 5825 5825 5825 5825 5824 5824 5824 5824 5824 5826 5826 5827 5827 5827 5827 5827 5826 5826 5826 5825 5825 5824 5824 5824 5823 5823 5823 5823 5823 5822 5822 5821 5821 5819 5818 5817 5815 5814 5812 5811
5818 5819 5820 5820 5820 5819 5820 5820 5819 5819 5818 5819 5819 5821 5821 5821 5821 5822 5822 5822 5822 5821 5821 5821 5820 5819 5819 5819 5818 5818 5818 5817 5817 5816 5816 5815 5814 5813 5811 5810 5808 5807 5805 5803
5812 5813 5813 5814 5815 5814 5817 5814 5813 5813 5813 5813 5813 5814 5814 5815 5815 5815 5816 5816 5815 5815 5815 5815 5814 5814 5813 5813 5812 5812 5811 5811 5810 5809 5809 5808 5806 5805 5804 5802 5801 5799 5797 5795
5806 5807 5807 5807 5807 5808 5809 5808 5807 5807 5808 5807 5807 5808 5808 5808 5809 5809 5809 5808 5808 5808 5808 5808 5808 5807 5807 5806 5806 5805 5805 5804 5803 5802 5801 5800 5799 5797 5796 5794 5792 5790 5788 5786
5800 5801 5802 5801 5801 5802 5804 5803 5801 5802 5802 5802 5801 5801 5801 5801 5802 5802 5801 5801 5801 5801 5800 5800 5800 5800 5800 5800 5799 5798 5797 5797 5796 5794 5793 5792 5791 5789 5787 5785 5783 5781 5778 5776
5795 5795 5796 5795 5795 5796 5797 5796 5796 5796 5796 5795 5794 5794 5794 5794 5794 5794 5793 5793 5793 5793 5793 5792 5792 5793 5793 5792 5792 5791 5790 5789 5787 5786 5785 5784 5782 5780 5778 5776 5774 5771 5768 5766
5789 5789 5790 5790 5790 5792 5790 5790 5790 5789 5788 5787 5787 5786 5786 5786 5786 5786 5785 5785 5785 5785 5785 5785 5785 5785 5785 5784 5783 5783 5782 5780 5779 5778 5777 5775 5773 5771 5768 5766 5763 5760 5758 5755
5782 5784 5783 5785 5786 5785 5784 5783 5783 5782 5782 5781 5780 5779 5779 5779 5778 5778 5778 5778 5778 5777 5777 5777 5777 5777 5776 5776 5775 5774 5773 5772 5770 5769 5767 5765 5763 5760 5758 5755 5752 5749 5746 5743
5776 5776 5777 5777 5778 5778 5777 5776 5776 5775 5775 5774 5773 5773 5772 5772 5771 5771 5771 5770 5770 5769 5769 5769 5769 5768 5767 5767 5766 5765 5764 5762 5761 5759 5757 5754 5752 5749 5746 5743 5740 5737 5733 5730
5769 5770 5770 5770 5771 5770 5770 5769 5769 5769 5768 5767 5766 5765 5765 5765 5764 5764 5763 5762 5762 5762 5762 5761 5761 5760 5759 5758 5756 5755 5754 5752 5750 5747 5745 5743 5740 5737 5734 5731 5727 5724 5720 5716
5762 5763 5763 5763 5763 5763 5763 5762 5762 5761 5761 5760 5759 5759 5758 5758 5757 5757 5756 5756 5755 5754 5754 5753 5752 5751 5750 5748 5747 5745 5743 5741 5739 5736 5733 5731 5727 5724 5721 5718 5714 5710 5706 5702